Troy, AL

3:21 PM CDT on August 20, 2017 (GMT -0500)
Troy Municipal

Weather History for KTOI - March, 2014

Change the Weather History Date:

Thursday, March 13, 2014

  Actual Average Record
Temperature  
Mean Temperature 47 °F 56 °F  
Max Temperature 61 °F 69 °F 82 °F (2016)
Min Temperature 33 °F 43 °F 28 °F (1998)
Degree Days  
Heating Degree Days 18 10  
Month to date heating degree days 143  
Since 1 July heating degree days 2062  
Cooling Degree Days 0 0  
Month to date cooling degree days 0  
Year to date cooling degree days 5  
Moisture  
Dew Point 28 °F    
Average Humidity 54    
Maximum Humidity 85    
Minimum Humidity 25    
Precipitation  
Precipitation 0.00 in 0.20 in 0.64 in (2002)
Month to date precipitation 2.22  
Year to date precipitation 11.35  
Snow  
Snow 0.00 in - - ()
Month to date snowfall  
Since 1 July snowfall  
Snow Depth -    
Sea Level Pressure  
Sea Level Pressure 30.20 in    
Wind  
Wind Speed 8 mph (NNW)    
Max Wind Speed 18 mph    
Max Gust Speed 26 mph    
Visibility 10 miles    
Events      
T = Trace of Precipitation, MM = Missing Value Source: NWS Daily Summary

Daily Weather History Graph

Daily Weather History Graph

Search for Another Location

Airport or City:

Trip Planner

Search our weather history database for the weather conditions in past years. The results will help you decide how hot, cold, wet, or windy it might be!

Date:

Astronomy

Mar. 13, 2014 Rise Set
Actual Time 6:56 AM CDT 6:50 PM CDT
Civil Twilight 6:32 AM CDT 7:15 PM CDT
Nautical Twilight 6:04 AM CDT 7:43 PM CDT
Astronomical Twilight 5:35 AM CDT 8:11 PM CDT
Moon 4:23 PM CDT (3/13) 4:54 AM CDT (3/13)
Length of Visible Light 12h 42m
Length of Day
11h 54m
Waxing Gibbous, 91% of the Moon is Illuminated
Mar 13
Waxing Gibbous
Mar 16
Full
Mar 23
Last Quarter
Mar 30
New
Apr 7
First Quarter

Hourly Weather History & Observations

Time (CDT) Temp. Windchill Dew Point Humidity Pressure Visibility Wind Dir Wind Speed Gust Speed Precip Events Conditions
12:53 AM 42.1 °F 35.2 °F 28.0 °F 58% 30.09 in 10.0 mi NNW 12.7 mph - N/A   Clear
1:53 AM 41.0 °F 35.8 °F 28.0 °F 60% 30.10 in 10.0 mi NW 8.1 mph - N/A   Clear
2:53 AM 39.0 °F 34.8 °F 26.1 °F 60% 30.11 in 10.0 mi NW 5.8 mph - N/A   Clear
3:53 AM 36.0 °F 31.1 °F 27.0 °F 70% 30.12 in 10.0 mi NW 5.8 mph - N/A   Clear
4:53 AM 35.1 °F 32.2 °F 28.0 °F 76% 30.14 in 10.0 mi WNW 3.5 mph - N/A   Clear
5:53 AM 33.1 °F - 28.9 °F 85% 30.16 in 10.0 mi Calm Calm - N/A   Clear
6:53 AM 34.0 °F 31.0 °F 28.0 °F 79% 30.19 in 10.0 mi West 3.5 mph - N/A   Clear
7:53 AM 37.0 °F 34.5 °F 28.9 °F 73% 30.22 in 10.0 mi WNW 3.5 mph - N/A   Clear
8:53 AM 44.1 °F 38.1 °F 28.0 °F 53% 30.24 in 10.0 mi NNW 11.5 mph - N/A   Clear
9:53 AM 48.0 °F - 26.1 °F 42% 30.25 in 10.0 mi NNW 13.8 mph 24.2 mph N/A   Clear
10:53 AM 51.1 °F - 26.1 °F 38% 30.25 in 10.0 mi North 18.4 mph - N/A   Clear
11:53 AM 55.0 °F - 27.0 °F 34% 30.24 in 10.0 mi North 15.0 mph 23.0 mph N/A   Clear
12:53 PM 55.9 °F - 27.0 °F 33% 30.23 in 10.0 mi NNW 15.0 mph 26.5 mph N/A   Clear
1:53 PM 57.9 °F - 28.0 °F 32% 30.21 in 10.0 mi WNW 16.1 mph - N/A   Clear
2:53 PM 59.0 °F - 27.0 °F 29% 30.20 in 10.0 mi North 10.4 mph 18.4 mph N/A   Clear
3:53 PM 60.1 °F - 26.1 °F 27% 30.19 in 10.0 mi North 15.0 mph - N/A   Clear
4:53 PM 61.0 °F - 25.0 °F 25% 30.19 in 10.0 mi NNW 11.5 mph - N/A   Clear
5:53 PM 59.0 °F - 25.0 °F 27% 30.20 in 10.0 mi North 9.2 mph - N/A   Clear
6:53 PM 54.0 °F - 26.1 °F 34% 30.22 in 10.0 mi North 5.8 mph - N/A   Clear
7:53 PM 46.9 °F - 32.0 °F 56% 30.24 in 10.0 mi Calm Calm - N/A   Clear
8:53 PM 43.0 °F - 32.0 °F 65% 30.25 in 10.0 mi Calm Calm - N/A   Clear
9:53 PM 42.1 °F - 34.0 °F 73% 30.27 in 10.0 mi Calm Calm - N/A   Clear
10:53 PM 39.9 °F - 33.1 °F 77% 30.27 in 10.0 mi Calm Calm - N/A   Clear
11:53 PM 37.0 °F - 32.0 °F 82% 30.26 in 10.0 mi Calm Calm - N/A   Clear